Home > Weather > Grand Junction > Past weeks

Flag for USA Past Weather in Grand Junction, Colorado, USA — Yesterday and Last 2 Weeks

Now
77 °F

Scattered clouds.


Feels Like: 78 °F
Forecast: 60 / 86 °F
Wind: 3 mph from North

Location: Walker Field

Current Time: Aug 24, 2016 at 2:03:23 PM

Latest Report: Aug 24, 2016 at 12:53 PM


Visibility: 10 mi

Pressure: 29.96 "Hg (25.52 "Hg at 1398m altitude)

Humidity: 35%

Dew Point: 47 °F

Location of Grand JunctionLocation

Past Weather in Grand Junction — Graph

°F

Grand Junction Temperature Yesterday

Maximum temperature yesterday: 78 °F (at 2:53 PM)
Minimum temperature yesterday: 61 °F (at 5:53 AM)
Average temperature yesterday: 70 °F

High & Low Weather Summary for the Past Weeks

 TemperatureHumidityPressure
High95 °F (Aug 9, 4:53 PM)78% (Aug 22, 9:53 PM)30.05 "Hg (Aug 22, 9:53 PM)
Low54 °F (Aug 19, 5:53 AM)6% (Aug 13, 3:53 PM)29.65 "Hg (Aug 9, 6:53 PM)
Average76 °F29%29.89 "Hg
* Reported Aug 9 12:53 PM — Aug 24 12:53 PM, Grand Junction, Weather by CustomWeather, © 2016

Note: Actual official high and low records may vary slightly from our data, if they occured in-between our weather recording intervals... More about our weather records

Advertising

Grand Junction Weather History for the Previous 24 Hours

Scroll right to see more
 ConditionsComfort  
Time TempWeatherWind HumidityBarometerVisibility
12:53 PM
Wed, Aug 24
77 °FScattered clouds.3 mph35%29.96 "Hg10 mi
11:53 AM75 °FSunny.N/A37%29.99 "Hg10 mi
10:53 AM72 °FSunny.12 mph43%30.02 "Hg10 mi
9:53 AM69 °FSunny.10 mph45%30.02 "Hg10 mi
8:53 AM66 °FSunny.10 mph54%30.03 "Hg10 mi
7:53 AM62 °FSunny.10 mph60%30.04 "Hg10 mi
6:53 AM61 °FClear.17 mph70%30.02 "Hg10 mi
5:53 AM59 °FClear.9 mph67%30.02 "Hg10 mi
4:53 AM59 °FClear.5 mph64%30.01 "Hg10 mi
3:53 AM63 °FPassing clouds.5 mph60%30.01 "Hg10 mi
2:53 AM64 °FClear.14 mph58%30.00 "Hg10 mi
1:53 AM65 °FPassing clouds.14 mph56%30.01 "Hg10 mi
12:53 AM65 °FPassing clouds.17 mph56%30.02 "Hg10 mi
11:53 PM
Tue, Aug 23
67 °FClear.15 mph53%30.01 "Hg10 mi
10:53 PM68 °FPassing clouds.23 mph49%30.01 "Hg10 mi
9:53 PM72 °FPassing clouds.13 mph37%29.98 "Hg10 mi
8:53 PM72 °FScattered clouds.16 mph40%29.96 "Hg10 mi
7:53 PM74 °FThundershowers. Scattered clouds.15 mph38%29.95 "Hg10 mi
6:53 PM76 °FSunny.10 mph36%29.94 "Hg10 mi
5:53 PM77 °FSunny.7 mph36%29.92 "Hg10 mi
4:53 PM78 °FPassing clouds.7 mph33%29.91 "Hg10 mi
3:53 PM78 °FSunny.8 mph35%29.91 "Hg10 mi
2:53 PM78 °FSunny.7 mph35%29.92 "Hg10 mi
Weather by CustomWeather, © 2016

See weather overviewHow to use our weather pages